owner,sensor,date,latitude,longitude,vertical_datum,wind_speed,wind_to_direction,wind_speed_of_gust,qcFlag 
WAVCIS,ioos:station:WAVCIS:CSI16:1,2012-02-01T00:00:00Z,29.4012,-89.0355,10.0,5.893,139.0,,'11111222,11111222,99999999' 
WAVCIS,ioos:station:WAVCIS:CSI16:1,2012-02-01T01:00:00Z,29.4012,-89.0355,10.0,6.335,130.0,,'11111222,11111222,99999999' 
WAVCIS,ioos:station:WAVCIS:CSI16:1,2012-02-01T02:00:00Z,29.4012,-89.0355,10.0,7.02,133.0,,'11111222,11111222,99999999' 
WAVCIS,ioos:station:WAVCIS:CSI16:1,2012-02-01T03:00:00Z,29.4012,-89.0355,10.0,6.003,140.0,,'11111222,11111222,99999999' 
WAVCIS,ioos:station:WAVCIS:CSI16:1,2012-02-01T04:00:00Z,29.4012,-89.0355,10.0,6.899,139.0,,'11111222,11111222,99999999' 
WAVCIS,ioos:station:WAVCIS:CSI16:1,2012-02-01T05:00:00Z,29.4012,-89.0355,10.0,6.831,141.0,,'11111222,11111222,99999999' 
WAVCIS,ioos:station:WAVCIS:CSI16:1,2012-02-01T06:00:00Z,29.4012,-89.0355,10.0,6.606,141.0,,'11111222,11111222,99999999' 
WAVCIS,ioos:station:WAVCIS:CSI16:1,2012-02-01T07:00:00Z,29.4012,-89.0355,10.0,7.41,145.0,,'11111222,11111222,99999999' 
WAVCIS,ioos:station:WAVCIS:CSI16:1,2012-02-01T08:00:00Z,29.4012,-89.0355,10.0,7.27,147.0,,'11111222,11111222,99999999' 
WAVCIS,ioos:station:WAVCIS:CSI16:1,2012-02-01T09:00:00Z,29.4012,-89.0355,10.0,4.987,136.0,,'11111222,11111222,99999999' 
WAVCIS,ioos:station:WAVCIS:CSI16:1,2012-02-01T10:00:00Z,29.4012,-89.0355,10.0,5.741,145.0,,'11111222,11111222,99999999' 
WAVCIS,ioos:station:WAVCIS:CSI16:1,2012-02-01T11:00:00Z,29.4012,-89.0355,10.0,5.583,148.0,,'11111222,11111222,99999999' 
WAVCIS,ioos:station:WAVCIS:CSI16:1,2012-02-01T12:00:00Z,29.4012,-89.0355,10.0,5.057,144.0,,'11111222,11111222,99999999' 
WAVCIS,ioos:station:WAVCIS:CSI16:1,2012-02-01T13:00:00Z,29.4012,-89.0355,10.0,4.87,141.0,,'11111222,11111222,99999999' 
WAVCIS,ioos:station:WAVCIS:CSI16:1,2012-02-01T14:00:00Z,29.4012,-89.0355,10.0,5.663,150.0,,'11111222,11111222,99999999' 
WAVCIS,ioos:station:WAVCIS:CSI16:1,2012-02-01T15:00:00Z,29.4012,-89.0355,10.0,5.594,154.0,,'11111222,11111222,99999999' 
WAVCIS,ioos:station:WAVCIS:CSI16:1,2012-02-01T16:00:00Z,29.4012,-89.0355,10.0,7.06,172.0,,'11111222,11111222,99999999' 
WAVCIS,ioos:station:WAVCIS:CSI16:1,2012-02-01T17:00:00Z,29.4012,-89.0355,10.0,5.801,177.0,,'11111222,11111222,99999999' 
WAVCIS,ioos:station:WAVCIS:CSI16:1,2012-02-01T18:00:00Z,29.4012,-89.0355,10.0,6.618,182.0,,'11111222,11111222,99999999' 
WAVCIS,ioos:station:WAVCIS:CSI16:1,2012-02-01T19:00:00Z,29.4012,-89.0355,10.0,7.7,181.0,,'11111222,11111222,99999999' 
WAVCIS,ioos:station:WAVCIS:CSI16:1,2012-02-01T20:00:00Z,29.4012,-89.0355,10.0,7.07,198.0,,'11111222,11111222,99999999' 
WAVCIS,ioos:station:WAVCIS:CSI16:1,2012-02-01T21:00:00Z,29.4012,-89.0355,10.0,7.07,180.0,,'11111222,11111222,99999999' 
WAVCIS,ioos:station:WAVCIS:CSI16:1,2012-02-01T22:00:00Z,29.4012,-89.0355,10.0,7.01,162.0,,'11111222,11111222,99999999' 
WAVCIS,ioos:station:WAVCIS:CSI16:1,2012-02-01T23:00:00Z,29.4012,-89.0355,10.0,6.683,149.0,,'11111222,11111222,99999999' 
WAVCIS,ioos:station:WAVCIS:CSI16:1,2012-02-02T00:00:00Z,29.4012,-89.0355,10.0,5.48,169.0,,'11111222,11111222,99999999' 
WAVCIS,ioos:station:WAVCIS:CSI16:1,2012-02-02T01:00:00Z,29.4012,-89.0355,10.0,3.376,27.0,,'11111222,11111222,99999999' 
WAVCIS,ioos:station:WAVCIS:CSI16:1,2012-02-02T02:00:00Z,29.4012,-89.0355,10.0,5.88,55.0,,'11111222,11111222,99999999' 
WAVCIS,ioos:station:WAVCIS:CSI16:1,2012-02-02T03:00:00Z,29.4012,-89.0355,10.0,3.971,77.0,,'11111222,11111222,99999999' 
WAVCIS,ioos:station:WAVCIS:CSI16:1,2012-02-02T04:00:00Z,29.4012,-89.0355,10.0,6.167,120.0,,'11111222,11111222,99999999' 
WAVCIS,ioos:station:WAVCIS:CSI16:1,2012-02-02T05:00:00Z,29.4012,-89.0355,10.0,3.916,95.0,,'11111222,11111222,99999999' 
WAVCIS,ioos:station:WAVCIS:CSI16:1,2012-02-02T06:00:00Z,29.4012,-89.0355,10.0,3.878,135.0,,'11111222,11111222,99999999' 
WAVCIS,ioos:station:WAVCIS:CSI16:1,2012-02-02T07:00:00Z,29.4012,-89.0355,10.0,5.489,129.0,,'11111222,11111222,99999999' 
WAVCIS,ioos:station:WAVCIS:CSI16:1,2012-02-02T08:00:00Z,29.4012,-89.0355,10.0,5.365,124.0,,'11111222,11111222,99999999' 
WAVCIS,ioos:station:WAVCIS:CSI16:1,2012-02-02T09:00:00Z,29.4012,-89.0355,10.0,4.122,146.0,,'11111222,11111222,99999999' 
WAVCIS,ioos:station:WAVCIS:CSI16:1,2012-02-02T10:00:00Z,29.4012,-89.0355,10.0,3.545,118.0,,'11111222,11111222,99999999' 
WAVCIS,ioos:station:WAVCIS:CSI16:1,2012-02-02T11:00:00Z,29.4012,-89.0355,10.0,3.054,122.0,,'11111222,11111222,99999999' 
WAVCIS,ioos:station:WAVCIS:CSI16:1,2012-02-02T12:00:00Z,29.4012,-89.0355,10.0,3.227,112.0,,'11111222,11111222,99999999' 
WAVCIS,ioos:station:WAVCIS:CSI16:1,2012-02-02T13:00:00Z,29.4012,-89.0355,10.0,2.493,80.0,,'11111222,11111222,99999999' 
WAVCIS,ioos:station:WAVCIS:CSI16:1,2012-02-02T14:00:00Z,29.4012,-89.0355,10.0,2.714,63.0,,'11111222,11111222,99999999' 
WAVCIS,ioos:station:WAVCIS:CSI16:1,2012-02-02T15:00:00Z,29.4012,-89.0355,10.0,4.693,54.0,,'11111222,11111222,99999999' 
WAVCIS,ioos:station:WAVCIS:CSI16:1,2012-02-02T16:00:00Z,29.4012,-89.0355,10.0,3.573,74.0,,'11111222,11111222,99999999' 
WAVCIS,ioos:station:WAVCIS:CSI16:1,2012-02-02T17:00:00Z,29.4012,-89.0355,10.0,4.823,80.0,,'11111222,11111222,99999999' 
WAVCIS,ioos:station:WAVCIS:CSI16:1,2012-02-02T18:00:00Z,29.4012,-89.0355,10.0,3.885,75.0,,'11111222,11111222,99999999' 
WAVCIS,ioos:station:WAVCIS:CSI16:1,2012-02-02T19:00:00Z,29.4012,-89.0355,10.0,3.511,68.0,,'11111222,11111222,99999999' 
WAVCIS,ioos:station:WAVCIS:CSI16:1,2012-02-02T20:00:00Z,29.4012,-89.0355,10.0,3.315,71.0,,'11111222,11111222,99999999' 
WAVCIS,ioos:station:WAVCIS:CSI16:1,2012-02-02T21:00:00Z,29.4012,-89.0355,10.0,4.024,69.0,,'11111222,11111222,99999999' 
WAVCIS,ioos:station:WAVCIS:CSI16:1,2012-02-02T22:00:00Z,29.4012,-89.0355,10.0,4.059,74.0,,'11111222,11111222,99999999' 
WAVCIS,ioos:station:WAVCIS:CSI16:1,2012-02-02T23:00:00Z,29.4012,-89.0355,10.0,5.824,82.0,,'11111222,11111222,99999999' 
WAVCIS,ioos:station:WAVCIS:CSI16:1,2012-02-03T00:00:00Z,29.4012,-89.0355,10.0,6.492,84.0,,'11111222,11111222,99999999' 
WAVCIS,ioos:station:WAVCIS:CSI16:1,2012-02-03T01:00:00Z,29.4012,-89.0355,10.0,6.631,89.0,,'11111222,11111222,99999999' 
WAVCIS,ioos:station:WAVCIS:CSI16:1,2012-02-03T02:00:00Z,29.4012,-89.0355,10.0,6.616,84.0,,'11111222,11111222,99999999' 
WAVCIS,ioos:station:WAVCIS:CSI16:1,2012-02-03T03:00:00Z,29.4012,-89.0355,10.0,7.2,93.0,,'11111222,11111222,99999999' 
WAVCIS,ioos:station:WAVCIS:CSI16:1,2012-02-03T04:00:00Z,29.4012,-89.0355,10.0,7.83,100.0,,'11111222,11111222,99999999' 
WAVCIS,ioos:station:WAVCIS:CSI16:1,2012-02-03T05:00:00Z,29.4012,-89.0355,10.0,7.93,107.0,,'11111222,11111222,99999999' 
WAVCIS,ioos:station:WAVCIS:CSI16:1,2012-02-03T06:00:00Z,29.4012,-89.0355,10.0,7.28,105.0,,'11111222,11111222,99999999' 
WAVCIS,ioos:station:WAVCIS:CSI16:1,2012-02-03T07:00:00Z,29.4012,-89.0355,10.0,7.75,99.0,,'11111222,11111222,99999999' 
WAVCIS,ioos:station:WAVCIS:CSI16:1,2012-02-03T08:00:00Z,29.4012,-89.0355,10.0,6.602,105.0,,'11111222,11111222,99999999' 
WAVCIS,ioos:station:WAVCIS:CSI16:1,2012-02-03T09:00:00Z,29.4012,-89.0355,10.0,5.92,115.0,,'11111222,11111222,99999999' 
WAVCIS,ioos:station:WAVCIS:CSI16:1,2012-02-03T10:00:00Z,29.4012,-89.0355,10.0,6.499,105.0,,'11111222,11111222,99999999' 
WAVCIS,ioos:station:WAVCIS:CSI16:1,2012-02-03T11:00:00Z,29.4012,-89.0355,10.0,7.55,103.0,,'11111222,11111222,99999999' 
WAVCIS,ioos:station:WAVCIS:CSI16:1,2012-02-03T12:00:00Z,29.4012,-89.0355,10.0,9.05,113.0,,'11111222,11111222,99999999' 
WAVCIS,ioos:station:WAVCIS:CSI16:1,2012-02-03T13:00:00Z,29.4012,-89.0355,10.0,7.09,113.0,,'11111222,11111222,99999999' 
WAVCIS,ioos:station:WAVCIS:CSI16:1,2012-02-03T14:00:00Z,29.4012,-89.0355,10.0,9.78,114.0,,'11111222,11111222,99999999' 
WAVCIS,ioos:station:WAVCIS:CSI16:1,2012-02-03T15:00:00Z,29.4012,-89.0355,10.0,9.61,116.0,,'11111222,11111222,99999999' 
WAVCIS,ioos:station:WAVCIS:CSI16:1,2012-02-03T16:00:00Z,29.4012,-89.0355,10.0,7.53,112.0,,'11111222,11111222,99999999' 
WAVCIS,ioos:station:WAVCIS:CSI16:1,2012-02-03T17:00:00Z,29.4012,-89.0355,10.0,6.567,113.0,,'11111222,11111222,99999999' 
WAVCIS,ioos:station:WAVCIS:CSI16:1,2012-02-03T18:00:00Z,29.4012,-89.0355,10.0,4.752,103.0,,'11111222,11111222,99999999' 
WAVCIS,ioos:station:WAVCIS:CSI16:1,2012-02-03T19:00:00Z,29.4012,-89.0355,10.0,5.49,98.0,,'11111222,11111222,99999999' 
WAVCIS,ioos:station:WAVCIS:CSI16:1,2012-02-03T20:00:00Z,29.4012,-89.0355,10.0,4.436,101.0,,'11111222,11111222,99999999' 
WAVCIS,ioos:station:WAVCIS:CSI16:1,2012-02-03T21:00:00Z,29.4012,-89.0355,10.0,4.13,97.0,,'11111222,11111222,99999999' 
WAVCIS,ioos:station:WAVCIS:CSI16:1,2012-02-03T22:00:00Z,29.4012,-89.0355,10.0,3.15,70.0,,'11111222,11111222,99999999' 
WAVCIS,ioos:station:WAVCIS:CSI16:1,2012-02-03T23:00:00Z,29.4012,-89.0355,10.0,3.748,53.0,,'11111222,11111222,99999999' 
WAVCIS,ioos:station:WAVCIS:CSI16:1,2012-02-04T00:00:00Z,29.4012,-89.0355,10.0,7.76,101.0,,'11111222,11111222,99999999' 
WAVCIS,ioos:station:WAVCIS:CSI16:1,2012-02-04T01:00:00Z,29.4012,-89.0355,10.0,8.21,108.0,,'11111222,11111222,99999999' 
WAVCIS,ioos:station:WAVCIS:CSI16:1,2012-02-04T02:00:00Z,29.4012,-89.0355,10.0,8.41,113.0,,'11111222,11111222,99999999' 
WAVCIS,ioos:station:WAVCIS:CSI16:1,2012-02-04T03:00:00Z,29.4012,-89.0355,10.0,7.03,108.0,,'11111222,11111222,99999999' 
WAVCIS,ioos:station:WAVCIS:CSI16:1,2012-02-04T04:00:00Z,29.4012,-89.0355,10.0,9.03,114.0,,'11111222,11111222,99999999' 
WAVCIS,ioos:station:WAVCIS:CSI16:1,2012-02-04T05:00:00Z,29.4012,-89.0355,10.0,7.76,113.0,,'11111222,11111222,99999999' 
WAVCIS,ioos:station:WAVCIS:CSI16:1,2012-02-04T06:00:00Z,29.4012,-89.0355,10.0,6.186,120.0,,'11111222,11111222,99999999' 
WAVCIS,ioos:station:WAVCIS:CSI16:1,2012-02-04T07:00:00Z,29.4012,-89.0355,10.0,6.051,128.0,,'11111222,11111222,99999999' 
WAVCIS,ioos:station:WAVCIS:CSI16:1,2012-02-04T08:00:00Z,29.4012,-89.0355,10.0,7.19,128.0,,'11111222,11111222,99999999' 
WAVCIS,ioos:station:WAVCIS:CSI16:1,2012-02-04T09:00:00Z,29.4012,-89.0355,10.0,6.748,137.0,,'11111222,11111222,99999999' 
WAVCIS,ioos:station:WAVCIS:CSI16:1,2012-02-04T10:00:00Z,29.4012,-89.0355,10.0,5.363,132.0,,'11111222,11111222,99999999' 
WAVCIS,ioos:station:WAVCIS:CSI16:1,2012-02-04T11:00:00Z,29.4012,-89.0355,10.0,3.462,140.0,,'11111222,11111222,99999999' 
WAVCIS,ioos:station:WAVCIS:CSI16:1,2012-02-04T12:00:00Z,29.4012,-89.0355,10.0,4.786,132.0,,'11111222,11111222,99999999' 
WAVCIS,ioos:station:WAVCIS:CSI16:1,2012-02-04T13:00:00Z,29.4012,-89.0355,10.0,6.045,133.0,,'11111222,11111222,99999999' 
WAVCIS,ioos:station:WAVCIS:CSI16:1,2012-02-04T14:00:00Z,29.4012,-89.0355,10.0,7.3,131.0,,'11111222,11111222,99999999' 
WAVCIS,ioos:station:WAVCIS:CSI16:1,2012-02-04T15:00:00Z,29.4012,-89.0355,10.0,5.979,128.0,,'11111222,11111222,99999999' 
WAVCIS,ioos:station:WAVCIS:CSI16:1,2012-02-04T16:00:00Z,29.4012,-89.0355,10.0,4.927,127.0,,'11111222,11111222,99999999' 
WAVCIS,ioos:station:WAVCIS:CSI16:1,2012-02-04T17:00:00Z,29.4012,-89.0355,10.0,6.475,125.0,,'11111222,11111222,99999999' 
WAVCIS,ioos:station:WAVCIS:CSI16:1,2012-02-04T18:00:00Z,29.4012,-89.0355,10.0,4.588,125.0,,'11111222,11111222,99999999' 
WAVCIS,ioos:station:WAVCIS:CSI16:1,2012-02-04T19:00:00Z,29.4012,-89.0355,10.0,3.655,136.0,,'11111222,11111222,99999999' 
WAVCIS,ioos:station:WAVCIS:CSI16:1,2012-02-04T20:00:00Z,29.4012,-89.0355,10.0,3.075,140.0,,'11111222,11111222,99999999' 
WAVCIS,ioos:station:WAVCIS:CSI16:1,2012-02-04T21:00:00Z,29.4012,-89.0355,10.0,3.037,143.0,,'11111222,11111222,99999999' 
WAVCIS,ioos:station:WAVCIS:CSI16:1,2012-02-04T22:00:00Z,29.4012,-89.0355,10.0,2.412,151.0,,'11111222,11111222,99999999' 
WAVCIS,ioos:station:WAVCIS:CSI16:1,2012-02-04T23:00:00Z,29.4012,-89.0355,10.0,3.298,163.0,,'11111222,11111222,99999999' 
WAVCIS,ioos:station:WAVCIS:CSI16:1,2012-02-05T00:00:00Z,29.4012,-89.0355,10.0,3.301,164.0,,'11111222,11111222,99999999' 
WAVCIS,ioos:station:WAVCIS:CSI16:1,2012-02-05T01:00:00Z,29.4012,-89.0355,10.0,3.11,179.0,,'11111222,11111222,99999999' 
WAVCIS,ioos:station:WAVCIS:CSI16:1,2012-02-05T02:00:00Z,29.4012,-89.0355,10.0,3.961,229.0,,'11111222,11111222,99999999' 
WAVCIS,ioos:station:WAVCIS:CSI16:1,2012-02-05T03:00:00Z,29.4012,-89.0355,10.0,2.721,174.0,,'11111222,11111222,99999999' 
WAVCIS,ioos:station:WAVCIS:CSI16:1,2012-02-05T04:00:00Z,29.4012,-89.0355,10.0,4.856,188.0,,'11111222,11111222,99999999' 
WAVCIS,ioos:station:WAVCIS:CSI16:1,2012-02-05T05:00:00Z,29.4012,-89.0355,10.0,3.891,319.0,,'11111222,11111222,99999999' 
WAVCIS,ioos:station:WAVCIS:CSI16:1,2012-02-05T06:00:00Z,29.4012,-89.0355,10.0,1.911,296.0,,'11111222,11111222,99999999' 
WAVCIS,ioos:station:WAVCIS:CSI16:1,2012-02-05T07:00:00Z,29.4012,-89.0355,10.0,4.924,283.0,,'11111222,11111222,99999999' 
WAVCIS,ioos:station:WAVCIS:CSI16:1,2012-02-05T08:00:00Z,29.4012,-89.0355,10.0,4.003,273.0,,'11111222,11111222,99999999' 
WAVCIS,ioos:station:WAVCIS:CSI16:1,2012-02-05T09:00:00Z,29.4012,-89.0355,10.0,4.074,284.0,,'11111222,11111222,99999999' 
WAVCIS,ioos:station:WAVCIS:CSI16:1,2012-02-05T10:00:00Z,29.4012,-89.0355,10.0,4.495,304.0,,'11111222,11111222,99999999' 
WAVCIS,ioos:station:WAVCIS:CSI16:1,2012-02-05T11:00:00Z,29.4012,-89.0355,10.0,7.74,340.0,,'11111222,11111222,99999999' 
WAVCIS,ioos:station:WAVCIS:CSI16:1,2012-02-05T12:00:00Z,29.4012,-89.0355,10.0,8.0,1.0,,'11111222,11111222,99999999' 
WAVCIS,ioos:station:WAVCIS:CSI16:1,2012-02-05T13:00:00Z,29.4012,-89.0355,10.0,9.43,5.0,,'11111222,11111222,99999999' 
WAVCIS,ioos:station:WAVCIS:CSI16:1,2012-02-05T14:00:00Z,29.4012,-89.0355,10.0,7.81,19.0,,'11111222,11111222,99999999' 
WAVCIS,ioos:station:WAVCIS:CSI16:1,2012-02-05T15:00:00Z,29.4012,-89.0355,10.0,9.35,7.0,,'11111222,11111222,99999999' 
WAVCIS,ioos:station:WAVCIS:CSI16:1,2012-02-05T16:00:00Z,29.4012,-89.0355,10.0,10.32,7.0,,'11111222,11111222,99999999' 
WAVCIS,ioos:station:WAVCIS:CSI16:1,2012-02-05T17:00:00Z,29.4012,-89.0355,10.0,10.64,9.0,,'11111222,11111222,99999999' 
WAVCIS,ioos:station:WAVCIS:CSI16:1,2012-02-05T18:00:00Z,29.4012,-89.0355,10.0,9.32,8.0,,'11111222,11111222,99999999' 
WAVCIS,ioos:station:WAVCIS:CSI16:1,2012-02-05T19:00:00Z,29.4012,-89.0355,10.0,9.67,4.0,,'11111222,11111222,99999999' 
WAVCIS,ioos:station:WAVCIS:CSI16:1,2012-02-05T20:00:00Z,29.4012,-89.0355,10.0,8.62,5.0,,'11111222,11111222,99999999' 
WAVCIS,ioos:station:WAVCIS:CSI16:1,2012-02-05T21:00:00Z,29.4012,-89.0355,10.0,8.87,5.0,,'11111222,11111222,99999999' 
WAVCIS,ioos:station:WAVCIS:CSI16:1,2012-02-05T22:00:00Z,29.4012,-89.0355,10.0,9.33,6.0,,'11111222,11111222,99999999' 
WAVCIS,ioos:station:WAVCIS:CSI16:1,2012-02-05T23:00:00Z,29.4012,-89.0355,10.0,9.01,13.0,,'11111222,11111222,99999999' 
WAVCIS,ioos:station:WAVCIS:CSI16:1,2012-02-06T00:00:00Z,29.4012,-89.0355,10.0,9.28,5.0,,'11111222,11111222,99999999' 
WAVCIS,ioos:station:WAVCIS:CSI16:1,2012-02-06T01:00:00Z,29.4012,-89.0355,10.0,11.15,6.0,,'11111222,11111222,99999999' 
WAVCIS,ioos:station:WAVCIS:CSI16:1,2012-02-06T02:00:00Z,29.4012,-89.0355,10.0,10.15,5.0,,'11111222,11111222,99999999' 
WAVCIS,ioos:station:WAVCIS:CSI16:1,2012-02-06T03:00:00Z,29.4012,-89.0355,10.0,9.83,7.0,,'11111222,11111222,99999999' 
WAVCIS,ioos:station:WAVCIS:CSI16:1,2012-02-06T04:00:00Z,29.4012,-89.0355,10.0,9.67,5.0,,'11111222,11111222,99999999' 
WAVCIS,ioos:station:WAVCIS:CSI16:1,2012-02-06T05:00:00Z,29.4012,-89.0355,10.0,11.0,5.0,,'11111222,11111222,99999999' 
WAVCIS,ioos:station:WAVCIS:CSI16:1,2012-02-06T06:00:00Z,29.4012,-89.0355,10.0,11.4,11.0,,'11111222,11111222,99999999' 
WAVCIS,ioos:station:WAVCIS:CSI16:1,2012-02-06T07:00:00Z,29.4012,-89.0355,10.0,11.26,11.0,,'11111222,11111222,99999999' 
WAVCIS,ioos:station:WAVCIS:CSI16:1,2012-02-06T08:00:00Z,29.4012,-89.0355,10.0,11.44,9.0,,'11111222,11111222,99999999' 
WAVCIS,ioos:station:WAVCIS:CSI16:1,2012-02-06T09:00:00Z,29.4012,-89.0355,10.0,11.21,16.0,,'11111222,11111222,99999999' 
WAVCIS,ioos:station:WAVCIS:CSI16:1,2012-02-06T10:00:00Z,29.4012,-89.0355,10.0,10.35,16.0,,'11111222,11111222,99999999' 
WAVCIS,ioos:station:WAVCIS:CSI16:1,2012-02-06T11:00:00Z,29.4012,-89.0355,10.0,9.24,13.0,,'11111222,11111222,99999999' 
WAVCIS,ioos:station:WAVCIS:CSI16:1,2012-02-06T12:00:00Z,29.4012,-89.0355,10.0,9.15,15.0,,'11111222,11111222,99999999' 
WAVCIS,ioos:station:WAVCIS:CSI16:1,2012-02-06T13:00:00Z,29.4012,-89.0355,10.0,9.15,17.0,,'11111222,11111222,99999999' 
WAVCIS,ioos:station:WAVCIS:CSI16:1,2012-02-06T14:00:00Z,29.4012,-89.0355,10.0,8.18,18.0,,'11111222,11111222,99999999' 
WAVCIS,ioos:station:WAVCIS:CSI16:1,2012-02-06T15:00:00Z,29.4012,-89.0355,10.0,8.23,11.0,,'11111222,11111222,99999999' 
WAVCIS,ioos:station:WAVCIS:CSI16:1,2012-02-06T16:00:00Z,29.4012,-89.0355,10.0,6.573,20.0,,'11111222,11111222,99999999' 
WAVCIS,ioos:station:WAVCIS:CSI16:1,2012-02-06T17:00:00Z,29.4012,-89.0355,10.0,5.295,23.0,,'11111222,11111222,99999999' 
WAVCIS,ioos:station:WAVCIS:CSI16:1,2012-02-06T18:00:00Z,29.4012,-89.0355,10.0,6.701,18.0,,'11111222,11111222,99999999' 
WAVCIS,ioos:station:WAVCIS:CSI16:1,2012-02-06T19:00:00Z,29.4012,-89.0355,10.0,5.853,15.0,,'11111222,11111222,99999999' 
WAVCIS,ioos:station:WAVCIS:CSI16:1,2012-02-06T20:00:00Z,29.4012,-89.0355,10.0,5.633,12.0,,'11111222,11111222,99999999' 
WAVCIS,ioos:station:WAVCIS:CSI16:1,2012-02-06T21:00:00Z,29.4012,-89.0355,10.0,5.872,7.0,,'11111222,11111222,99999999' 
WAVCIS,ioos:station:WAVCIS:CSI16:1,2012-02-06T22:00:00Z,29.4012,-89.0355,10.0,5.474,0.0,,'11111222,11111222,99999999' 
WAVCIS,ioos:station:WAVCIS:CSI16:1,2012-02-06T23:00:00Z,29.4012,-89.0355,10.0,6.955,8.0,,'11111222,11111222,99999999' 
WAVCIS,ioos:station:WAVCIS:CSI16:1,2012-02-07T00:00:00Z,29.4012,-89.0355,10.0,7.61,6.0,,'11111222,11111222,99999999' 
WAVCIS,ioos:station:WAVCIS:CSI16:1,2012-02-07T01:00:00Z,29.4012,-89.0355,10.0,7.54,13.0,,'11111222,11111222,99999999' 
WAVCIS,ioos:station:WAVCIS:CSI16:1,2012-02-07T02:00:00Z,29.4012,-89.0355,10.0,6.406,13.0,,'11111222,11111222,99999999' 
WAVCIS,ioos:station:WAVCIS:CSI16:1,2012-02-07T03:00:00Z,29.4012,-89.0355,10.0,7.49,16.0,,'11111222,11111222,99999999' 
WAVCIS,ioos:station:WAVCIS:CSI16:1,2012-02-07T04:00:00Z,29.4012,-89.0355,10.0,6.735,17.0,,'11111222,11111222,99999999' 
WAVCIS,ioos:station:WAVCIS:CSI16:1,2012-02-07T05:00:00Z,29.4012,-89.0355,10.0,5.354,18.0,,'11111222,11111222,99999999' 
WAVCIS,ioos:station:WAVCIS:CSI16:1,2012-02-07T06:00:00Z,29.4012,-89.0355,10.0,6.255,21.0,,'11111222,11111222,99999999' 
WAVCIS,ioos:station:WAVCIS:CSI16:1,2012-02-07T07:00:00Z,29.4012,-89.0355,10.0,4.2,28.0,,'11111222,11111222,99999999' 
WAVCIS,ioos:station:WAVCIS:CSI16:1,2012-02-07T08:00:00Z,29.4012,-89.0355,10.0,7.98,20.0,,'11111222,11111222,99999999' 
WAVCIS,ioos:station:WAVCIS:CSI16:1,2012-02-07T09:00:00Z,29.4012,-89.0355,10.0,7.93,19.0,,'11111222,11111222,99999999' 
WAVCIS,ioos:station:WAVCIS:CSI16:1,2012-02-07T10:00:00Z,29.4012,-89.0355,10.0,5.631,23.0,,'11111222,11111222,99999999' 
WAVCIS,ioos:station:WAVCIS:CSI16:1,2012-02-07T11:00:00Z,29.4012,-89.0355,10.0,5.624,25.0,,'11111222,11111222,99999999' 
WAVCIS,ioos:station:WAVCIS:CSI16:1,2012-02-07T12:00:00Z,29.4012,-89.0355,10.0,5.61,25.0,,'11111222,11111222,99999999' 
WAVCIS,ioos:station:WAVCIS:CSI16:1,2012-02-07T13:00:00Z,29.4012,-89.0355,10.0,5.506,25.0,,'11111222,11111222,99999999' 
WAVCIS,ioos:station:WAVCIS:CSI16:1,2012-02-07T14:00:00Z,29.4012,-89.0355,10.0,7.61,20.0,,'11111222,11111222,99999999' 
WAVCIS,ioos:station:WAVCIS:CSI16:1,2012-02-07T15:00:00Z,29.4012,-89.0355,10.0,5.071,25.0,,'11111222,11111222,99999999' 
WAVCIS,ioos:station:WAVCIS:CSI16:1,2012-02-07T16:00:00Z,29.4012,-89.0355,10.0,3.368,25.0,,'11111222,11111222,99999999' 
WAVCIS,ioos:station:WAVCIS:CSI16:1,2012-02-07T17:00:00Z,29.4012,-89.0355,10.0,3.902,24.0,,'11111222,11111222,99999999' 
WAVCIS,ioos:station:WAVCIS:CSI16:1,2012-02-07T18:00:00Z,29.4012,-89.0355,10.0,1.726,48.0,,'11111222,11111222,99999999' 
WAVCIS,ioos:station:WAVCIS:CSI16:1,2012-02-07T19:00:00Z,29.4012,-89.0355,10.0,3.11,20.0,,'11111222,11111222,99999999' 
WAVCIS,ioos:station:WAVCIS:CSI16:1,2012-02-07T20:00:00Z,29.4012,-89.0355,10.0,2.719,23.0,,'11111222,11111222,99999999' 
WAVCIS,ioos:station:WAVCIS:CSI16:1,2012-02-07T21:00:00Z,29.4012,-89.0355,10.0,3.688,2.0,,'11111222,11111222,99999999' 
WAVCIS,ioos:station:WAVCIS:CSI16:1,2012-02-07T22:00:00Z,29.4012,-89.0355,10.0,5.922,7.0,,'11111222,11111222,99999999' 
WAVCIS,ioos:station:WAVCIS:CSI16:1,2012-02-07T23:00:00Z,29.4012,-89.0355,10.0,4.673,4.0,,'11111222,11111222,99999999' 
WAVCIS,ioos:station:WAVCIS:CSI16:1,2012-02-08T00:00:00Z,29.4012,-89.0355,10.0,1.895,8.0,,'11111222,11111222,99999999' 
WAVCIS,ioos:station:WAVCIS:CSI16:1,2012-02-08T01:00:00Z,29.4012,-89.0355,10.0,2.884,344.0,,'11111222,11111222,99999999' 
WAVCIS,ioos:station:WAVCIS:CSI16:1,2012-02-08T02:00:00Z,29.4012,-89.0355,10.0,3.106,336.0,,'11111222,11111222,99999999' 
WAVCIS,ioos:station:WAVCIS:CSI16:1,2012-02-08T03:00:00Z,29.4012,-89.0355,10.0,3.648,338.0,,'11111222,11111222,99999999' 
WAVCIS,ioos:station:WAVCIS:CSI16:1,2012-02-08T04:00:00Z,29.4012,-89.0355,10.0,3.409,332.0,,'11111222,11111222,99999999' 
WAVCIS,ioos:station:WAVCIS:CSI16:1,2012-02-08T05:00:00Z,29.4012,-89.0355,10.0,4.369,349.0,,'11111222,11111222,99999999' 
WAVCIS,ioos:station:WAVCIS:CSI16:1,2012-02-08T06:00:00Z,29.4012,-89.0355,10.0,5.466,351.0,,'11111222,11111222,99999999' 
WAVCIS,ioos:station:WAVCIS:CSI16:1,2012-02-08T07:00:00Z,29.4012,-89.0355,10.0,5.993,8.0,,'11111222,11111222,99999999' 
WAVCIS,ioos:station:WAVCIS:CSI16:1,2012-02-08T08:00:00Z,29.4012,-89.0355,10.0,5.542,14.0,,'11111222,11111222,99999999' 
WAVCIS,ioos:station:WAVCIS:CSI16:1,2012-02-08T09:00:00Z,29.4012,-89.0355,10.0,5.375,12.0,,'11111222,11111222,99999999' 
WAVCIS,ioos:station:WAVCIS:CSI16:1,2012-02-08T10:00:00Z,29.4012,-89.0355,10.0,6.488,13.0,,'11111222,11111222,99999999' 
WAVCIS,ioos:station:WAVCIS:CSI16:1,2012-02-08T11:00:00Z,29.4012,-89.0355,10.0,6.476,15.0,,'11111222,11111222,99999999' 
WAVCIS,ioos:station:WAVCIS:CSI16:1,2012-02-08T12:00:00Z,29.4012,-89.0355,10.0,3.887,23.0,,'11111222,11111222,99999999' 
WAVCIS,ioos:station:WAVCIS:CSI16:1,2012-02-08T13:00:00Z,29.4012,-89.0355,10.0,7.97,15.0,,'11111222,11111222,99999999' 
WAVCIS,ioos:station:WAVCIS:CSI16:1,2012-02-08T14:00:00Z,29.4012,-89.0355,10.0,10.38,11.0,,'11111222,11111222,99999999' 
WAVCIS,ioos:station:WAVCIS:CSI16:1,2012-02-08T15:00:00Z,29.4012,-89.0355,10.0,11.08,9.0,,'11111222,11111222,99999999' 
WAVCIS,ioos:station:WAVCIS:CSI16:1,2012-02-08T16:00:00Z,29.4012,-89.0355,10.0,10.75,13.0,,'11111222,11111222,99999999' 
WAVCIS,ioos:station:WAVCIS:CSI16:1,2012-02-08T17:00:00Z,29.4012,-89.0355,10.0,8.02,19.0,,'11111222,11111222,99999999' 
WAVCIS,ioos:station:WAVCIS:CSI16:1,2012-02-08T18:00:00Z,29.4012,-89.0355,10.0,8.46,13.0,,'11111222,11111222,99999999' 
WAVCIS,ioos:station:WAVCIS:CSI16:1,2012-02-08T19:00:00Z,29.4012,-89.0355,10.0,7.84,15.0,,'11111222,11111222,99999999' 
WAVCIS,ioos:station:WAVCIS:CSI16:1,2012-02-08T20:00:00Z,29.4012,-89.0355,10.0,6.412,12.0,,'11111222,11111222,99999999' 
WAVCIS,ioos:station:WAVCIS:CSI16:1,2012-02-08T21:00:00Z,29.4012,-89.0355,10.0,6.359,7.0,,'11111222,11111222,99999999' 
WAVCIS,ioos:station:WAVCIS:CSI16:1,2012-02-08T22:00:00Z,29.4012,-89.0355,10.0,5.294,2.0,,'11111222,11111222,99999999' 
WAVCIS,ioos:station:WAVCIS:CSI16:1,2012-02-08T23:00:00Z,29.4012,-89.0355,10.0,6.06,359.0,,'11111222,11111222,99999999' 
WAVCIS,ioos:station:WAVCIS:CSI16:1,2012-02-09T00:00:00Z,29.4012,-89.0355,10.0,5.15,351.0,,'11111222,11111222,99999999' 
WAVCIS,ioos:station:WAVCIS:CSI16:1,2012-02-09T01:00:00Z,29.4012,-89.0355,10.0,6.149,1.0,,'11111222,11111222,99999999' 
WAVCIS,ioos:station:WAVCIS:CSI16:1,2012-02-09T02:00:00Z,29.4012,-89.0355,10.0,7.1,358.0,,'11111222,11111222,99999999' 
WAVCIS,ioos:station:WAVCIS:CSI16:1,2012-02-09T03:00:00Z,29.4012,-89.0355,10.0,11.45,9.0,,'11111222,11111222,99999999' 
WAVCIS,ioos:station:WAVCIS:CSI16:1,2012-02-09T04:00:00Z,29.4012,-89.0355,10.0,9.66,17.0,,'11111222,11111222,99999999' 
WAVCIS,ioos:station:WAVCIS:CSI16:1,2012-02-09T05:00:00Z,29.4012,-89.0355,10.0,9.16,21.0,,'11111222,11111222,99999999' 
WAVCIS,ioos:station:WAVCIS:CSI16:1,2012-02-09T06:00:00Z,29.4012,-89.0355,10.0,7.14,24.0,,'11111222,11111222,99999999' 